Location: *
(45.9500°N, 9.0833°E)
Time: 15:22:16
(UTC+00:00)

Cosmos 2219 Rocket - Pass Details

Date: 03 March 2021
Orbit: 826 x 848 km, 71.0° (Epoch: 14 April)

Event Time Altitude Azimuth Distance (km) Brightness Sun altitude
Rises 17:42:30 0° 144° (SE) 3,354 5.0 -5.9°
Reaches altitude 10° 17:47:04 10° 109° (ESE) 2,432 4.0 -6.7°
Maximum altitude 17:48:25 11° 95° (E) 2,373 3.9 -6.9°
Drops below altitude 10° 17:49:46 10° 81° (E) 2,439 3.9 -7.2°
Enters shadow 17:53:37 - 50° (NE) 3,181 4.7 -7.8°
